Weather History for CYYZ - May, 2014

Change the Weather History Date:

Tuesday, May 6, 2014

  Actual Average Record
Temperature  
Mean Temperature 50 °F -  
Max Temperature 59 °F 67 °F 86 °F (2000)
Min Temperature 41 °F 45 °F 37 °F (1997)
Degree Days  
Heating Degree Days 15    
Moisture  
Dew Point 31 °F    
Average Humidity 45    
Maximum Humidity 66    
Minimum Humidity 23    
Precipitation  
Precipitation 0.00 in 0.09 in - ()
Sea Level Pressure  
Sea Level Pressure 30.07 in    
Wind  
Wind Speed 10 mph ()    
Max Wind Speed 15 mph    
Max Gust Speed 22 mph    
Visibility 15.0 miles    
Events      
Averages and records for this station are not official NWS values.
T = Trace of Precipitation, MM = Missing Value Source: Averaged Metar Reports

Daily Weather History Graph

Daily Weather History Graph

Search for Another Location

Airport or City:

Trip Planner

Search our weather history database for the weather conditions in past years. The results will help you decide how hot, cold, wet, or windy it might be!

Date:

Astronomy

May. 06, 2014 Rise Set
Actual Time 6:04 AM EDT 8:26 PM EDT
Civil Twilight 5:32 AM EDT 8:59 PM EDT
Nautical Twilight 4:52 AM EDT 9:39 PM EDT
Astronomical Twilight 4:07 AM EDT 10:23 PM EDT
Moon 12:20 PM EDT (5/6) 1:43 AM EDT (5/6)
Length of Visible Light 15h 26m
Length of Day
14h 22m
Waxing Crescent, 46% of the Moon is Illuminated
May 6
Waxing Crescent
May 6
First Quarter
May 14
Full
May 21
Last Quarter
May 28
New

Hourly Weather History & Observations

Time (EDT) Temp. Windchill Dew Point Humidity Pressure Visibility Wind Dir Wind Speed Gust Speed Precip Events Conditions
12:00 AM 46.4 °F 41.5 °F 28.4 °F 50% 29.98 in 15.0 mi North 10.4 mph - N/A   Mostly Cloudy
1:00 AM 44.6 °F 38.1 °F 28.4 °F 53% 29.99 in 15.0 mi North 13.8 mph - N/A   Overcast
2:00 AM 45 °F - 29 °F 41% 29.99 in 15 mi North 11.5 mph - -   Overcast
2:00 AM 44.6 °F 38.4 °F 28.4 °F 53% 29.99 in 15.0 mi North 12.7 mph - N/A   Overcast
3:00 AM 44.6 °F 37.8 °F 30.2 °F 57% 29.99 in 15.0 mi North 15.0 mph - N/A   Overcast
8:00 AM 44 °F - 34 °F 58% 30.06 in 15 mi North 10.4 mph - -   Mostly Cloudy
8:00 AM 44.6 °F 39.7 °F 33.8 °F 66% 30.06 in 15.0 mi North 9.2 mph - N/A   Mostly Cloudy
9:00 AM 48.2 °F - 33.8 °F 58% 30.08 in 15.0 mi North 9.2 mph - N/A   Mostly Cloudy
10:00 AM 51.8 °F - 33.8 °F 50% 30.09 in 15.0 mi NNE 3.5 mph - N/A   Partly Cloudy
11:00 AM 53.6 °F - 32.0 °F 44% 30.09 in 15.0 mi NW 3.5 mph - N/A   Partly Cloudy
12:00 PM 57.2 °F - 35.6 °F 44% 30.09 in 15.0 mi NNW 8.1 mph - N/A   Mostly Cloudy
1:00 PM 55.4 °F - 33.8 °F 44% 30.08 in 15.0 mi North 9.2 mph - N/A   Mostly Cloudy
2:00 PM 58 °F - 35 °F 30% 30.08 in 15 mi NNW 10.4 mph - -   Partly Cloudy
2:00 PM 59.0 °F - 35.6 °F 42% 30.08 in 15.0 mi North 11.5 mph - N/A   Mostly Cloudy
3:00 PM 59.0 °F - 33.8 °F 39% 30.07 in 15.0 mi NNW 8.1 mph - N/A   Partly Cloudy
4:00 PM 59.0 °F - 32.0 °F 36% 30.07 in 15.0 mi NNW 11.5 mph 21.9 mph N/A   Partly Cloudy
5:00 PM 59.0 °F - 30.2 °F 34% 30.08 in 15.0 mi North 15.0 mph 20.7 mph N/A   Partly Cloudy
6:00 PM 57.2 °F - 30.2 °F 36% 30.09 in 15.0 mi North 10.4 mph 20.7 mph N/A   Partly Cloudy
7:00 PM 55.4 °F - 30.2 °F 38% 30.09 in 15.0 mi North 10.4 mph - N/A   Scattered Clouds
8:00 PM 52 °F - 26 °F 23% 30.12 in 15 mi North 11.5 mph - -   Clear
8:00 PM 51.8 °F - 24.8 °F 35% 30.12 in 15.0 mi North 11.5 mph - N/A   Scattered Clouds
9:00 PM 50.0 °F - 32.0 °F 50% 30.13 in 15.0 mi North 10.4 mph - N/A   Scattered Clouds
10:00 PM 46.4 °F 40.4 °F 30.2 °F 53% 30.15 in 15.0 mi North 13.8 mph - N/A   Scattered Clouds
11:00 PM 44.6 °F 38.1 °F 28.4 °F 53% 30.17 in 15.0 mi North 13.8 mph - N/A   Scattered Clouds